Location: Branche des Alpilles
(43.6087°N, 4.6976°E)
Time: 10:20:10
(UTC+00:00)

FENGYUN 1C DEB - Pass Details

Date: 24 June 2021
Orbit: 782 x 878 km, 99.7° (Epoch: 28 July)

Event Time Altitude Azimuth Distance (km) Brightness Sun altitude
Exits shadow 00:53:45 20° 137° (SE) 1,790 ? -21.1°
Maximum altitude 00:57:13 51° 69° (ENE) 1,000 ? -20.9°
Drops below altitude 10° 01:02:14 10° 355° (N) 2,362 ? -20.6°
Sets 01:04:35 0° 350° (N) 3,288 ? -20.5°
